User: anonymous   Login
Location: Newark
(43.0000°N, 1.6781°W)
Time: 11:24:55
(UTC+00:00)
Language:

Explorer 7 - Orbit

View from above orbital plane
View from above orbital plane
View from above satellite
View from above satellite

Ground track
Ground track

The orbit data is extracted from the following two-line orbital elements,

1 00022U 59009A   22269.86094726  .00002229  00000-0  17947-3 0  9996
2 00022  50.2820 156.5724 0133689 199.0428 160.5495 14.97461716594820
Epoch (UTC): 26 September 2022 20:39:45
Eccentricity: 0.0133689
inclination: 50.2820°
perigee height: 482 km
apogee height: 667 km
right ascension of ascending node: 156.5724°
argument of perigee: 199.0428°
revolutions per day: 14.97461716
mean anomaly at epoch: 160.5495°
orbit number at epoch: 59482

The dashed part of the orbit path shows where the satellite is in the earth's shadow,  

DLR